GW1727 Weather Reports


Display with metric or nautical units.
time (UTC)temp
F
wind
direction
speed
MPH
gust
MPH
rain 1hr
in
rain 24hr
in
rain mn
in
humidity
%
barometer
mb
20260504203050 81 39 0.0 0.0 0.00 0.00 0.00 17 1001.0
20260504201548 81 88 0.0 0.0 0.00 0.00 0.00 17 1001.3
20260504200046 80 14 0.0 0.0 0.00 0.00 0.00 17 1001.4
20260504194542 79 43 0.0 0.0 0.00 0.00 0.00 18 1001.6
20260504193053 79 76 0.0 0.0 0.00 0.00 0.00 18 1001.8
20260504191537 78 80 0.0 0.0 0.00 0.00 0.00 19 1002.0
20260504190035 78 52 0.0 0.0 0.00 0.00 0.00 18 1002.1
20260504184531 78 63 0.0 0.0 0.00 0.00 0.00 18 1002.3
20260504183029 78 55 0.0 0.0 0.00 0.00 0.00 19 1002.5
20260504181528 77 50 0.0 0.0 0.00 0.00 0.00 19 1002.8
20260504180025 77 53 0.0 0.0 0.00 0.00 0.00 18 1002.9
20260504174523 77 51 0.0 0.0 0.00 0.00 0.00 19 1003.1
20260504173020 76 29 0.0 0.0 0.00 0.00 0.00 20 1003.0
20260504171517 76 60 0.0 0.0 0.00 0.00 0.00 22 1003.3
20260504081511 46 249 0.0 0.0 0.00 0.00 0.00 63 1004.6
20260504044538 56 127 0.0 0.0 0.00 0.00 0.00 43 1006.1
20260504043042 58 127 0.0 0.0 0.00 0.00 0.00 41 1006.3
20260504041535 61 127 0.0 0.0 0.00 0.00 0.00 38 1006.4
20260504040034 59 97 0.0 0.0 0.00 0.00 0.00 40 1006.5
20260504034539 61 98 0.0 0.0 0.00 0.00 0.00 38 1006.6
20260504033034 61 90 0.0 0.0 0.00 0.00 0.00 38 1006.5
20260504031532 61 85 0.0 0.0 0.00 0.00 0.00 38 1006.4
20260504030032 62 84 0.0 0.0 0.00 0.00 0.00 36 1006.3
20260504024531 62 85 0.0 0.0 0.00 0.00 0.00 36 1006.3
20260504023031 62 57 0.0 0.0 0.00 0.00 0.00 35 1006.2
20260504021535 64 76 0.0 0.0 0.00 0.00 0.00 33 1005.9
20260504020040 66 76 0.0 0.0 0.00 0.00 0.00 31 1005.9
20260504014536 68 71 0.0 0.0 0.00 0.00 0.00 29 1005.8
20260504013030 70 69 0.0 0.0 0.00 0.00 0.00 28 1005.7
20260504011529 71 66 0.0 0.0 0.00 0.00 0.00 27 1005.8
20260504010027 72 66 0.0 0.0 0.00 0.00 0.00 26 1005.8
20260504004525 74 70 0.0 0.0 0.00 0.00 0.00 24 1005.9
20260504003024 75 33 0.0 0.0 0.00 0.00 0.00 24 1006.0
20260504001524 76 56 0.0 0.0 0.00 0.00 0.00 23 1006.1
20260504000021 76 57 0.0 0.0 0.00 0.00 0.00 22 1006.3
20260503234522 76 74 0.0 0.0 0.00 0.00 0.00 21 1006.5
20260503233018 77 69 0.0 0.0 0.00 0.00 0.00 20 1006.6
20260503231521 77 185 0.0 0.0 0.00 0.00 0.00 20 1006.7
20260503230020 77 226 0.0 0.0 0.00 0.00 0.00 20 1006.9
20260503224513 76 227 0.0 0.0 0.00 0.00 0.00 19 1007.0
20260503223013 77 227 0.0 0.0 0.00 0.00 0.00 20 1007.0
20260503221511 78 241 0.0 0.0 0.00 0.00 0.00 19 1007.2
20260503220009 77 243 0.0 0.0 0.00 0.00 0.00 19 1007.4
20260503214525 76 164 0.0 0.0 0.00 0.00 0.00 20 1007.6
20260503213006 76 163 0.0 0.0 0.00 0.00 0.00 20 1007.7
20260503211502 77 168 0.0 0.0 0.00 0.00 0.00 21 1008.0
20260503210100 77 116 0.0 0.0 0.00 0.00 0.00 22 1008.2
20260503204558 76 106 0.0 0.0 0.00 0.00 0.00 21 1008.5